Weather History for Newberry, MI

Change the Weather History Date:

Thursday, April 11, 2013

  Actual Average Record
Temperature  
Mean Temperature 30 °F -  
Max Temperature 33 °F 44 °F 76 °F (1945)
Min Temperature 26 °F 25 °F -30 °F (1927)
Degree Days  
Heating Degree Days 36    
Moisture  
Dew Point 17 °F    
Average Humidity 58    
Maximum Humidity 100    
Minimum Humidity 41    
Precipitation  
Precipitation 0.00 in - - ()
Sea Level Pressure  
Sea Level Pressure 30.07 in    
Wind  
Wind Speed 11 mph (ENE)    
Max Wind Speed 18 mph    
Max Gust Speed 33 mph    
Visibility 9 miles    
Events Snow    
Averages and records for this station are not official NWS values.
T = Trace of Precipitation, MM = Missing Value Source: NWS Daily Summary

Daily Weather History Graph

Daily Weather History Graph

Search for Another Location

Airport:

Trip Planner

Search our weather history database for the weather conditions in past years. The results will help you decide how hot, cold, wet, or windy it might be!

Date:

Astronomy

Apr. 11, 2013 Rise Set
Actual Time 7:02 AM EDT 8:24 PM EDT
Civil Twilight 6:30 AM EDT 8:55 PM EDT
Nautical Twilight 5:53 AM EDT 9:33 PM EDT
Astronomical Twilight 5:13 AM EDT 10:13 PM EDT
Moon 7:28 AM EDT (4/11) 10:04 PM EDT (4/11)
Length of Visible Light 14h 24m
Length of Day
13h 22m
New Moon, 2% of the Moon is Illuminated
Apr 11
New Moon
Apr 18
First Quarter
Apr 25
Full
May 2
Last Quarter
May 9
New

Hourly Weather History & Observations

Time (EDT) Temp. Windchill Dew Point Humidity Pressure Visibility Wind Dir Wind Speed Gust Speed Precip Events Conditions
12:15 AM 32.0 °F 27.5 °F 24.8 °F 75% 30.16 in 10.0 mi North 4.6 mph - N/A   Clear
12:34 AM 32.0 °F 25.6 °F 24.8 °F 75% 30.14 in 10.0 mi NNE 6.9 mph - N/A   Clear
12:54 AM 30.2 °F 23.4 °F 24.8 °F 80% 30.14 in 10.0 mi NNE 6.9 mph - N/A   Clear
1:15 AM 32.0 °F 25.6 °F 23.0 °F 69% 30.15 in 10.0 mi NNE 6.9 mph - N/A   Clear
1:34 AM 32.0 °F 23.0 °F 21.2 °F 64% 30.14 in 10.0 mi NE 11.5 mph - N/A   Clear
1:54 AM 32.0 °F 23.6 °F 21.2 °F 64% 30.14 in 10.0 mi NE 10.4 mph 16.1 mph N/A   Clear
2:15 AM 30.2 °F 20.8 °F 21.2 °F 69% 30.13 in 10.0 mi NE 11.5 mph - N/A   Clear
2:34 AM 30.2 °F 21.9 °F 21.2 °F 69% 30.13 in 10.0 mi NE 9.2 mph - N/A   Clear
2:55 AM 30.2 °F 21.3 °F 21.2 °F 69% 30.12 in 10.0 mi NE 10.4 mph 18.4 mph N/A   Clear
3:15 AM 30.2 °F 21.9 °F 21.2 °F 69% 30.12 in 10.0 mi NE 9.2 mph 17.3 mph N/A   Clear
3:34 AM 30.2 °F 20.8 °F 19.4 °F 64% 30.11 in 10.0 mi NE 11.5 mph - N/A   Clear
3:55 AM 28.4 °F 19.7 °F 19.4 °F 69% 30.11 in 10.0 mi NE 9.2 mph - N/A   Clear
4:15 AM 28.4 °F 19.1 °F 19.4 °F 69% 30.12 in 10.0 mi NE 10.4 mph - N/A   Clear
4:34 AM 28.4 °F 19.7 °F 19.4 °F 69% 30.12 in 10.0 mi NNE 9.2 mph - N/A   Clear
4:55 AM 28.4 °F 20.4 °F 19.4 °F 69% 30.12 in 10.0 mi NE 8.1 mph - N/A   Clear
5:14 AM 28.4 °F 20.4 °F 19.4 °F 69% 30.13 in 10.0 mi ENE 8.1 mph - N/A   Clear
5:34 AM 28.4 °F 19.7 °F 19.4 °F 69% 30.14 in 10.0 mi ENE 9.2 mph - N/A   Clear
5:55 AM 26.6 °F 16.2 °F 19.4 °F 74% 30.13 in 10.0 mi NE 11.5 mph - N/A   Clear
6:14 AM 26.6 °F 16.8 °F 19.4 °F 74% 30.13 in 10.0 mi ENE 10.4 mph - N/A   Clear
6:34 AM 26.6 °F 17.5 °F 19.4 °F 74% 30.12 in 10.0 mi NE 9.2 mph - N/A   Clear
6:55 AM 26.6 °F 17.5 °F 19.4 °F 74% 30.13 in 10.0 mi NE 9.2 mph - N/A   Clear
7:14 AM 26.6 °F 16.8 °F 17.6 °F 69% 30.13 in 10.0 mi NE 10.4 mph - N/A   Clear
7:35 AM 26.6 °F 14.3 °F 15.8 °F 64% 30.13 in 10.0 mi ENE 16.1 mph 23.0 mph N/A   Clear
7:55 AM 26.6 °F 15.7 °F 14.0 °F 59% 30.12 in 10.0 mi ENE 12.7 mph 20.7 mph N/A   Clear
8:14 AM 26.6 °F 14.3 °F 14.0 °F 59% 30.13 in 10.0 mi ENE 16.1 mph 20.7 mph N/A   Clear
8:35 AM 26.6 °F 17.5 °F 12.2 °F 55% 30.15 in 10.0 mi ENE 9.2 mph 17.3 mph N/A   Clear
8:55 AM 26.6 °F 15.2 °F 12.2 °F 55% 30.16 in 10.0 mi East 13.8 mph 18.4 mph N/A   Clear
9:14 AM 26.6 °F 14.7 °F 12.2 °F 55% 30.16 in 10.0 mi ENE 15.0 mph 23.0 mph N/A   Clear
9:35 AM 26.6 °F 14.3 °F 12.2 °F 55% 30.12 in 10.0 mi ENE 16.1 mph 20.7 mph N/A   Clear
9:54 AM 26.6 °F 13.8 °F 12.2 °F 55% 30.12 in 10.0 mi ENE 17.3 mph 21.9 mph N/A   Clear
10:14 AM 26.6 °F 13.8 °F 10.4 °F 51% 30.11 in 10.0 mi ENE 17.3 mph 20.7 mph N/A   Clear
10:35 AM 28.4 °F 15.8 °F 10.4 °F 47% 30.09 in 10.0 mi East 18.4 mph 23.0 mph N/A   Clear
10:54 AM 28.4 °F 18.0 °F 10.4 °F 47% 30.10 in 10.0 mi ENE 12.7 mph 16.1 mph N/A   Clear
11:14 AM 28.4 °F 18.5 °F 10.4 °F 47% 30.12 in 10.0 mi ENE 11.5 mph 19.6 mph N/A   Clear
11:34 AM 28.4 °F 18.0 °F 12.2 °F 51% 30.13 in 10.0 mi ENE 12.7 mph - N/A   Clear
11:54 AM 28.4 °F 17.5 °F 10.4 °F 47% 30.11 in 10.0 mi NE 13.8 mph 17.3 mph N/A   Clear
12:15 PM 30.2 °F 18.9 °F 12.2 °F 47% 30.09 in 10.0 mi ENE 16.1 mph 21.9 mph N/A   Scattered Clouds
12:34 PM 30.2 °F 18.9 °F 12.2 °F 47% 30.09 in 10.0 mi ENE 16.1 mph 21.9 mph N/A   Clear
1:15 PM 30.2 °F 18.5 °F 12.2 °F 47% 30.07 in 10.0 mi ENE 17.3 mph - N/A   Scattered Clouds
1:34 PM 30.2 °F 18.5 °F 12.2 °F 47% 30.05 in 10.0 mi ENE 17.3 mph 21.9 mph N/A   Mostly Cloudy
1:55 PM 30.2 °F 21.3 °F 12.2 °F 47% 30.05 in 10.0 mi ENE 10.4 mph - N/A   Mostly Cloudy
2:14 PM 30.2 °F 21.3 °F 12.2 °F 47% 30.06 in 10.0 mi East 10.4 mph 23.0 mph N/A   Scattered Clouds
2:34 PM 32.0 °F 21.2 °F 12.2 °F 44% 30.04 in 10.0 mi ENE 16.1 mph 26.5 mph N/A   Clear
2:55 PM 32.0 °F 20.5 °F 12.2 °F 44% 30.05 in 10.0 mi East 18.4 mph 25.3 mph N/A   Clear
3:14 PM 33.8 °F 24.8 °F 12.2 °F 41% 30.05 in 10.0 mi East 12.7 mph 24.2 mph N/A   Scattered Clouds
3:34 PM 33.8 °F 23.9 °F 12.2 °F 41% 30.03 in 10.0 mi ENE 15.0 mph 23.0 mph N/A   Scattered Clouds
3:55 PM 33.8 °F 23.5 °F 14.0 °F 44% 30.01 in 10.0 mi ENE 16.1 mph 23.0 mph N/A   Scattered Clouds
4:14 PM 33.8 °F 23.2 °F 12.2 °F 41% 30.03 in 10.0 mi East 17.3 mph 23.0 mph N/A   Scattered Clouds
4:34 PM 33.8 °F 22.8 °F 14.0 °F 44% 30.01 in 10.0 mi NE 18.4 mph 21.9 mph N/A   Scattered Clouds
4:55 PM 33.8 °F 23.9 °F 14.0 °F 44% 30.01 in 10.0 mi ENE 15.0 mph 21.9 mph N/A   Scattered Clouds
5:14 PM 33.8 °F 23.5 °F 14.0 °F 44% 30.02 in 10.0 mi ENE 16.1 mph 19.6 mph N/A   Mostly Cloudy
5:35 PM 33.8 °F 23.5 °F 15.8 °F 48% 30.02 in 10.0 mi ENE 16.1 mph - N/A   Overcast
5:55 PM 33.8 °F 23.5 °F 15.8 °F 48% 30.01 in 10.0 mi ENE 16.1 mph - N/A   Mostly Cloudy
6:14 PM 33.8 °F 24.3 °F 15.8 °F 48% 30.01 in 10.0 mi ENE 13.8 mph 23.0 mph N/A   Scattered Clouds
6:35 PM 33.8 °F 24.8 °F 15.8 °F 48% 30.01 in 10.0 mi ENE 12.7 mph 18.4 mph N/A   Scattered Clouds
6:54 PM 33.8 °F 23.5 °F 15.8 °F 48% 29.99 in 10.0 mi ENE 16.1 mph 23.0 mph N/A   Mostly Cloudy
7:14 PM 33.8 °F 23.5 °F 15.8 °F 48% 29.98 in 10.0 mi ENE 16.1 mph - N/A   Overcast
7:35 PM 33.8 °F 24.3 °F 15.8 °F 48% 29.98 in 10.0 mi ENE 13.8 mph 20.7 mph N/A   Overcast
7:54 PM 33.8 °F 23.9 °F 15.8 °F 48% 29.98 in 10.0 mi ENE 15.0 mph 26.5 mph N/A   Overcast
8:14 PM 33.8 °F 24.3 °F 15.8 °F 48% 29.97 in 10.0 mi ENE 13.8 mph 20.7 mph N/A   Overcast
8:35 PM 33.8 °F 26.4 °F 17.6 °F 52% 29.96 in 10.0 mi East 9.2 mph - N/A   Overcast
8:54 PM 33.8 °F 24.8 °F 17.6 °F 52% 29.94 in 10.0 mi ENE 12.7 mph 20.7 mph N/A   Overcast
9:14 PM 33.8 °F 25.3 °F 17.6 °F 52% 29.95 in 10.0 mi East 11.5 mph - N/A   Overcast
9:34 PM 33.8 °F 24.3 °F 17.6 °F 52% 29.97 in 10.0 mi East 13.8 mph 18.4 mph N/A   Overcast
9:54 PM 32.0 °F 22.5 °F 19.4 °F 60% 29.97 in 10.0 mi East 12.7 mph - N/A   Overcast
10:15 PM 32.0 °F 22.1 °F 19.4 °F 60% 29.97 in 10.0 mi East 13.8 mph 18.4 mph N/A   Overcast
10:34 PM 30.2 °F 19.3 °F 21.2 °F 69% 29.97 in 3.0 mi ENE 15.0 mph 33.4 mph N/A Snow Light Snow
10:54 PM 30.2 °F 18.1 °F 23.0 °F 75% 29.99 in 2.0 mi East 18.4 mph 24.2 mph N/A Snow Light Snow
11:14 PM 28.4 °F 18.0 °F 24.8 °F 86% 29.98 in 1.0 mi East 12.7 mph 19.6 mph N/A Snow Snow
11:34 PM 26.6 °F 14.7 °F 24.8 °F 93% 29.94 in 1.0 mi ENE 15.0 mph 20.7 mph N/A Snow Snow
11:55 PM 26.6 °F 13.8 °F 26.6 °F 100% 29.92 in 0.8 mi ENE 17.3 mph 23.0 mph N/A Snow Snow